| time (UTC) | temp C | wind direction | speed KPH | gust KPH | rain 1hr cm | rain 24hr cm | rain mn cm | humidity % | barometer mb |
| 20260903161746 | 24 | 206 | 4.8 | 12.9 | 0.00 | 0.00 | 0.00 | 68 | 1019.7 |
| 20260903160746 | 24 | 123 | 6.4 | 14.5 | 0.00 | 0.00 | 0.00 | 69 | 1019.8 |
| 20260903155747 | 24 | 174 | 8.0 | 14.5 | 0.00 | 0.00 | 0.00 | 69 | 1019.8 |
| 20260903154746 | 25 | 185 | 6.4 | 12.9 | 0.00 | 0.00 | 0.00 | 68 | 1019.7 |
| 20260903153746 | 25 | 136 | 6.4 | 14.5 | 0.00 | 0.00 | 0.00 | 68 | 1019.9 |
| 20260903152746 | 25 | 177 | 6.4 | 12.9 | 0.00 | 0.00 | 0.00 | 68 | 1019.6 |
| 20260903151745 | 25 | 180 | 1.6 | 14.5 | 0.00 | 0.00 | 0.00 | 67 | 1019.7 |
| 20260903150746 | 25 | 220 | 6.4 | 12.9 | 0.00 | 0.00 | 0.00 | 67 | 1019.8 |
| 20260903145746 | 25 | 210 | 3.2 | 14.5 | 0.00 | 0.00 | 0.00 | 68 | 1019.9 |
| 20260903144746 | 25 | 190 | 8.0 | 12.9 | 0.00 | 0.00 | 0.00 | 67 | 1019.9 |
| 20260903144225 | 26 | 179 | 8.0 | 12.9 | 0.00 | 0.00 | 0.00 | 66 | 1019.9 |
| 20260903142746 | 25 | 142 | 3.2 | 9.7 | 0.00 | 0.00 | 0.00 | 67 | 1019.8 |
| 20260903141746 | 25 | 178 | 4.8 | 12.9 | 0.00 | 0.00 | 0.00 | 68 | 1019.9 |
| 20260903140746 | 25 | 197 | 6.4 | 12.9 | 0.00 | 0.00 | 0.00 | 70 | 1019.9 |
| 20260903140223 | 25 | 224 | 8.0 | 12.9 | 0.00 | 0.00 | 0.00 | 69 | 1020.0 |
| 20260903134746 | 25 | 175 | 8.0 | 12.9 | 0.00 | 0.00 | 0.00 | 69 | 1020.0 |
| 20260903134232 | 25 | 179 | 9.7 | 14.5 | 0.00 | 0.00 | 0.00 | 71 | 1020.1 |
| 20260903132746 | 25 | 199 | 3.2 | 14.5 | 0.00 | 0.00 | 0.00 | 70 | 1020.1 |
| 20260903131746 | 25 | 139 | 6.4 | 16.1 | 0.00 | 0.00 | 0.00 | 72 | 1020.3 |
| 20260903130746 | 24 | 202 | 3.2 | 16.1 | 0.00 | 0.00 | 0.00 | 73 | 1020.3 |
| 20260903125746 | 24 | 72 | 4.8 | 11.3 | 0.00 | 0.00 | 0.00 | 71 | 1020.5 |
| 20260903124746 | 24 | 101 | 6.4 | 12.9 | 0.00 | 0.00 | 0.00 | 72 | 1020.6 |
| 20260903123746 | 23 | 121 | 9.7 | 12.9 | 0.00 | 0.00 | 0.00 | 74 | 1020.7 |
| 20260903122746 | 23 | 117 | 1.6 | 12.9 | 0.00 | 0.00 | 0.00 | 77 | 1020.9 |
| 20260903121746 | 22 | 198 | 9.7 | 14.5 | 0.00 | 0.00 | 0.00 | 77 | 1021.1 |
| 20260903120745 | 22 | 127 | 9.7 | 11.3 | 0.00 | 0.00 | 0.00 | 76 | 1021.2 |
| 20260903115746 | 22 | 138 | 4.8 | 11.3 | 0.00 | 0.00 | 0.00 | 77 | 1021.3 |
| 20260903115144 | 22 | 224 | 1.6 | 9.7 | 0.00 | 0.00 | 0.00 | 78 | 1021.7 |
| 20260903114825 | 22 | 206 | 6.4 | 12.9 | 0.00 | 0.00 | 0.00 | 77 | 1021.5 |
| 20260903113134 | 22 | 212 | 6.4 | 12.9 | 0.00 | 0.00 | 0.00 | 78 | 1022.0 |
| 20260903112808 | 22 | 155 | 4.8 | 12.9 | 0.00 | 0.00 | 0.00 | 78 | 1021.7 |
| 20260903110746 | 22 | 181 | 4.8 | 11.3 | 0.00 | 0.00 | 0.00 | 79 | 1021.7 |
| 20260903105746 | 22 | 154 | 3.2 | 11.3 | 0.00 | 0.00 | 0.00 | 78 | 1021.7 |
| 20260903104747 | 22 | 226 | 1.6 | 14.5 | 0.00 | 0.00 | 0.00 | 78 | 1021.5 |
| 20260903103746 | 22 | 317 | 0.0 | 11.3 | 0.00 | 0.00 | 0.00 | 80 | 1021.6 |
| 20260903103240 | 22 | 123 | 3.2 | 11.3 | 0.00 | 0.00 | 0.00 | 79 | 1021.3 |
| 20260903101746 | 22 | 147 | 1.6 | 11.3 | 0.00 | 0.00 | 0.00 | 79 | 1021.2 |
| 20260903100746 | 22 | 126 | 8.0 | 9.7 | 0.00 | 0.00 | 0.00 | 80 | 1020.9 |
| 20260903095746 | 22 | 153 | 0.0 | 6.4 | 0.00 | 0.00 | 0.00 | 81 | 1021.0 |
| 20260903094746 | 22 | 48 | 0.0 | 3.2 | 0.00 | 0.00 | 0.00 | 78 | 1020.9 |
| 20260903093746 | 21 | 33 | 1.6 | 4.8 | 0.00 | 0.00 | 0.00 | 82 | 1021.0 |
| 20260903092746 | 21 | 16 | 0.0 | 4.8 | 0.00 | 0.00 | 0.00 | 84 | 1020.9 |
| 20260903091746 | 21 | 155 | 3.2 | 4.8 | 0.00 | 0.00 | 0.00 | 85 | 1021.0 |
| 20260903090746 | 21 | 350 | 0.0 | 6.4 | 0.00 | 0.00 | 0.00 | 86 | 1020.8 |
| 20260903085746 | 21 | 135 | 3.2 | 4.8 | 0.00 | 0.00 | 0.00 | 84 | 1020.7 |
| 20260903084746 | 20 | 97 | 1.6 | 3.2 | 0.00 | 0.00 | 0.00 | 86 | 1020.5 |
| 20260903083746 | 19 | 354 | 1.6 | 3.2 | 0.00 | 0.00 | 0.00 | 83 | 1020.6 |
| 20260903082746 | 20 | 352 | 1.6 | 3.2 | 0.00 | 0.00 | 0.00 | 84 | 1020.4 |
| 20260903081746 | 19 | 339 | 1.6 | 6.4 | 0.00 | 0.00 | 0.00 | 80 | 1020.4 |
| 20260903080746 | 19 | 2 | 3.2 | 6.4 | 0.00 | 0.00 | 0.00 | 78 | 1020.3 |
| 20260903075734 | 19 | 356 | 4.8 | 6.4 | 0.00 | 0.00 | 0.00 | 79 | 1020.2 |
| 20260903075211 | 19 | 353 | 6.4 | 9.7 | 0.00 | 0.00 | 0.00 | 77 | 1020.3 |
| 20260903073734 | 18 | 355 | 4.8 | 6.4 | 0.00 | 0.00 | 0.00 | 80 | 1020.2 |
| 20260903072733 | 18 | 352 | 3.2 | 6.4 | 0.00 | 0.00 | 0.00 | 85 | 1020.3 |
| 20260903072219 | 18 | 341 | 3.2 | 6.4 | 0.00 | 0.00 | 0.00 | 86 | 1020.4 |
| 20260903070733 | 18 | 337 | 3.2 | 6.4 | 0.00 | 0.00 | 0.00 | 89 | 1020.1 |
| 20260903070215 | 18 | 355 | 4.8 | 4.8 | 0.00 | 0.00 | 0.00 | 88 | 1020.2 |
| 20260903065220 | 18 | 331 | 3.2 | 6.4 | 0.00 | 0.00 | 0.00 | 87 | 1019.9 |
| 20260903063734 | 18 | 344 | 3.2 | 4.8 | 0.00 | 0.00 | 0.00 | 87 | 1019.9 |
| 20260903062734 | 17 | 325 | 3.2 | 4.8 | 0.00 | 0.00 | 0.00 | 86 | 1019.6 |
| 20260903061734 | 18 | 339 | 1.6 | 9.7 | 0.00 | 0.00 | 0.00 | 86 | 1019.5 |
| 20260903061212 | 17 | 346 | 3.2 | 6.4 | 0.00 | 0.00 | 0.00 | 87 | 1019.5 |
| 20260903055734 | 18 | 346 | 1.6 | 4.8 | 0.00 | 0.00 | 0.00 | 83 | 1019.0 |
| 20260903054735 | 17 | 326 | 3.2 | 6.4 | 0.00 | 0.00 | 0.00 | 82 | 1018.9 |
| 20260903053735 | 17 | 337 | 4.8 | 6.4 | 0.00 | 0.00 | 0.00 | 82 | 1018.6 |
| 20260903052733 | 17 | 346 | 4.8 | 4.8 | 0.00 | 0.00 | 0.00 | 82 | 1018.5 |
| 20260903051735 | 18 | 338 | 4.8 | 9.7 | 0.00 | 0.00 | 0.00 | 84 | 1018.5 |
| 20260903050734 | 17 | 323 | 3.2 | 6.4 | 0.00 | 0.00 | 0.00 | 85 | 1018.9 |
| 20260903045734 | 18 | 349 | 3.2 | 9.7 | 0.00 | 0.00 | 0.00 | 83 | 1018.7 |
| 20260903044734 | 18 | 333 | 4.8 | 6.4 | 0.00 | 0.00 | 0.00 | 86 | 1018.9 |
| 20260903043735 | 18 | 356 | 1.6 | 4.8 | 0.00 | 0.00 | 0.00 | 87 | 1018.7 |
| 20260903042733 | 18 | 358 | 3.2 | 4.8 | 0.00 | 0.00 | 0.00 | 86 | 1018.8 |
| 20260903041734 | 18 | 336 | 3.2 | 4.8 | 0.00 | 0.00 | 0.00 | 87 | 1018.7 |
| 20260903040735 | 18 | 342 | 1.6 | 4.8 | 0.00 | 0.00 | 0.00 | 85 | 1019.0 |
| 20260903035734 | 17 | 341 | 3.2 | 4.8 | 0.00 | 0.00 | 0.00 | 79 | 1018.8 |
| 20260903034734 | 17 | 335 | 3.2 | 6.4 | 0.00 | 0.00 | 0.00 | 81 | 1018.7 |
| 20260903034256 | 18 | 341 | 3.2 | 9.7 | 0.00 | 0.00 | 0.00 | 82 | 1018.7 |
| 20260903034139 | 18 | 354 | 4.8 | 6.4 | 0.00 | 0.00 | 0.00 | 85 | 1018.7 |
| 20260903031734 | 18 | 336 | 3.2 | 6.4 | 0.00 | 0.00 | 0.00 | 85 | 1018.9 |
| 20260903030734 | 18 | 349 | 3.2 | 4.8 | 0.00 | 0.00 | 0.00 | 84 | 1019.1 |
| 20260903025734 | 18 | 350 | 1.6 | 4.8 | 0.00 | 0.00 | 0.00 | 84 | 1019.1 |
| 20260903024734 | 18 | 347 | 3.2 | 6.4 | 0.00 | 0.00 | 0.00 | 83 | 1019.0 |
| 20260903023734 | 18 | 345 | 3.2 | 6.4 | 0.00 | 0.00 | 0.00 | 83 | 1019.0 |
| 20260903022733 | 18 | 1 | 6.4 | 6.4 | 0.00 | 0.00 | 0.00 | 83 | 1019.1 |
| 20260903021734 | 18 | 14 | 3.2 | 4.8 | 0.00 | 0.00 | 0.00 | 84 | 1019.1 |
| 20260903021120 | 18 | 337 | 3.2 | 9.7 | 0.00 | 0.00 | 0.00 | 84 | 1019.1 |
| 20260903020757 | 18 | 343 | 3.2 | 6.4 | 0.00 | 0.00 | 0.00 | 83 | 1019.4 |
| 20260903014734 | 18 | 343 | 4.8 | 9.7 | 0.00 | 0.00 | 0.00 | 83 | 1019.2 |
| 20260903013734 | 18 | 337 | 4.8 | 6.4 | 0.00 | 0.00 | 0.00 | 87 | 1019.4 |
| 20260903012733 | 18 | 356 | 4.8 | 6.4 | 0.00 | 0.00 | 0.00 | 87 | 1019.6 |
| 20260903011735 | 18 | 3 | 3.2 | 4.8 | 0.00 | 0.00 | 0.00 | 87 | 1019.6 |
| 20260903010734 | 18 | 342 | 3.2 | 6.4 | 0.00 | 0.00 | 0.00 | 87 | 1019.7 |
| 20260903005734 | 18 | 342 | 3.2 | 6.4 | 0.00 | 0.00 | 0.00 | 87 | 1019.5 |
| 20260903004733 | 18 | 342 | 3.2 | 6.4 | 0.00 | 0.00 | 0.00 | 86 | 1019.8 |
| 20260903003734 | 18 | 346 | 4.8 | 9.7 | 0.00 | 0.00 | 0.00 | 85 | 1019.8 |
| 20260903002734 | 18 | 338 | 6.4 | 9.7 | 0.00 | 0.00 | 0.00 | 86 | 1020.0 |
| 20260903001734 | 19 | 339 | 4.8 | 6.4 | 0.00 | 0.00 | 0.00 | 87 | 1020.2 |
| 20260903000734 | 19 | 342 | 3.2 | 4.8 | 0.00 | 0.00 | 0.00 | 86 | 1020.0 |
| 20260902235733 | 19 | 9 | 1.6 | 4.8 | 0.00 | 0.00 | 0.00 | 86 | 1019.9 |
| 20260902234734 | 19 | 334 | 3.2 | 9.7 | 0.00 | 0.00 | 0.00 | 86 | 1020.0 |
| 20260902234210 | 19 | 4 | 4.8 | 11.3 | 0.00 | 0.00 | 0.00 | 86 | 1020.3 |
| 20260902232734 | 19 | 336 | 3.2 | 9.7 | 0.00 | 0.00 | 0.00 | 86 | 1020.1 |
| 20260902231734 | 19 | 344 | 3.2 | 6.4 | 0.00 | 0.00 | 0.00 | 87 | 1020.3 |
| 20260902231213 | 19 | 346 | 4.8 | 9.7 | 0.00 | 0.00 | 0.00 | 87 | 1020.2 |
| 20260902225734 | 19 | 11 | 4.8 | 9.7 | 0.00 | 0.00 | 0.00 | 86 | 1020.2 |
| 20260902224733 | 20 | 9 | 4.8 | 6.4 | 0.00 | 0.00 | 0.00 | 87 | 1020.3 |
| 20260902223734 | 20 | 334 | 3.2 | 6.4 | 0.00 | 0.00 | 0.00 | 87 | 1020.6 |
| 20260902222734 | 20 | 20 | 3.2 | 4.8 | 0.00 | 0.00 | 0.00 | 86 | 1020.7 |
| 20260902221735 | 20 | 337 | 1.6 | 3.2 | 0.00 | 0.00 | 0.00 | 86 | 1020.5 |
| 20260902220733 | 20 | 332 | 0.0 | 3.2 | 0.00 | 0.00 | 0.00 | 87 | 1020.6 |
| 20260902220649 | 19 | 340 | 3.2 | 3.2 | 0.00 | 0.00 | 0.00 | 85 | 1020.6 |
| 20260902214736 | 19 | 333 | 1.6 | 4.8 | 0.00 | 0.00 | 0.00 | 87 | 1020.4 |
| 20260902213734 | 19 | 344 | 1.6 | 4.8 | 0.00 | 0.00 | 0.00 | 86 | 1020.2 |
| 20260902212734 | 19 | 346 | 3.2 | 4.8 | 0.00 | 0.00 | 0.00 | 86 | 1020.3 |
| 20260902211734 | 19 | 333 | 3.2 | 4.8 | 0.00 | 0.00 | 0.00 | 87 | 1020.1 |
| 20260902210733 | 19 | 341 | 0.0 | 4.8 | 0.00 | 0.00 | 0.00 | 85 | 1019.8 |
| 20260902205735 | 19 | 350 | 1.6 | 4.8 | 0.00 | 0.00 | 0.00 | 86 | 1019.8 |
| 20260902204734 | 19 | 348 | 3.2 | 4.8 | 0.00 | 0.00 | 0.00 | 88 | 1019.7 |
| 20260902203734 | 20 | 337 | 1.6 | 4.8 | 0.00 | 0.00 | 0.00 | 87 | 1019.8 |
| 20260902203215 | 20 | 48 | 0.0 | 3.2 | 0.00 | 0.00 | 0.00 | 88 | 1019.7 |
| 20260902201733 | 20 | 338 | 3.2 | 4.8 | 0.00 | 0.00 | 0.00 | 86 | 1019.5 |
| 20260902200733 | 20 | 339 | 0.0 | 3.2 | 0.00 | 0.00 | 0.00 | 87 | 1019.5 |
| 20260902195734 | 20 | 338 | 3.2 | 3.2 | 0.00 | 0.00 | 0.00 | 86 | 1019.6 |
| 20260902195211 | 20 | 333 | 0.0 | 4.8 | 0.00 | 0.00 | 0.00 | 86 | 1019.4 |
| 20260902194224 | 20 | 353 | 3.2 | 4.8 | 0.00 | 0.00 | 0.00 | 86 | 1019.2 |
| 20260902193213 | 20 | 343 | 3.2 | 3.2 | 0.00 | 0.00 | 0.00 | 88 | 1019.2 |
| 20260902191734 | 20 | 357 | 3.2 | 3.2 | 0.00 | 0.00 | 0.00 | 88 | 1019.1 |
| 20260902190734 | 21 | 320 | 0.0 | 3.2 | 0.00 | 0.00 | 0.00 | 88 | 1019.4 |
| 20260902185735 | 21 | 113 | 0.0 | 3.2 | 0.00 | 0.00 | 0.00 | 88 | 1019.5 |
| 20260902185221 | 21 | 227 | 1.6 | 3.2 | 0.00 | 0.00 | 0.00 | 87 | 1019.5 |
| 20260902184209 | 21 | 131 | 1.6 | 4.8 | 0.00 | 0.00 | 0.00 | 87 | 1019.4 |
| 20260902182735 | 21 | 154 | 0.0 | 4.8 | 0.00 | 0.00 | 0.00 | 86 | 1019.6 |
| 20260902181734 | 21 | 181 | 0.0 | 4.8 | 0.00 | 0.00 | 0.00 | 86 | 1019.5 |
| 20260902180735 | 21 | 140 | 1.6 | 9.7 | 0.00 | 0.00 | 0.00 | 86 | 1019.5 |
| 20260902175735 | 22 | 148 | 1.6 | 6.4 | 0.00 | 0.00 | 0.00 | 86 | 1019.5 |
| 20260902174734 | 21 | 63 | 0.0 | 9.7 | 0.00 | 0.00 | 0.00 | 87 | 1019.8 |
| 20260902173734 | 21 | 190 | 3.2 | 9.7 | 0.00 | 0.00 | 0.00 | 87 | 1019.8 |
| 20260902172734 | 21 | 88 | 6.4 | 9.7 | 0.00 | 0.00 | 0.00 | 86 | 1019.8 |
| 20260902171734 | 21 | 109 | 1.6 | 9.7 | 0.00 | 0.00 | 0.00 | 86 | 1019.7 |
| 20260902170734 | 21 | 90 | 4.8 | 6.4 | 0.00 | 0.00 | 0.00 | 86 | 1019.7 |
| 20260902165734 | 21 | 112 | 4.8 | 9.7 | 0.00 | 0.00 | 0.00 | 86 | 1019.8 |
| 20260902165220 | 22 | 128 | 1.6 | 11.3 | 0.00 | 0.00 | 0.00 | 86 | 1020.1 |
| 20260902164649 | 22 | 84 | 4.8 | 11.3 | 0.00 | 0.00 | 0.00 | 85 | 1020.0 |
| 20260902162734 | 22 | 135 | 8.0 | 9.7 | 0.00 | 0.00 | 0.00 | 84 | 1019.9 |